DFC222 LEAL-LEBL

Flight info

Callsign DFC222
Flight time 0h 46m
Altitude 30000
Route MITOS N608 MATEX
Aircraft B737/M-SDE2E3FGHIRWXY/LB1

Departure

Time 2026-05-04 18:54
Airport Alicante-Elche Miguel Hernández Airport (LEAL)

Arrival

Time 2026-05-04 19:40
Airport Josep Tarradellas Barcelona-El Prat Airport (LEBL)
Time Latitude Longitude Altitude Speed Heading
2026-05-04 18:11 38.28646 -0.55029 85 ft 0 kts 280°
2026-05-04 18:33 38.28644 -0.55015 87 ft 2 kts 280°
2026-05-04 18:33 38.28641 -0.54994 87 ft 2 kts 277°
2026-05-04 18:33 38.28639 -0.54974 85 ft 2 kts 274°
2026-05-04 18:34 38.28644 -0.54955 86 ft 2 kts 207°
2026-05-04 18:34 38.28653 -0.54950 85 ft 0 kts 194°
2026-05-04 18:44 38.28652 -0.54951 83 ft 1 kts 194°
2026-05-04 18:45 38.28601 -0.54950 81 ft 11 kts 190°
2026-05-04 18:45 38.28515 -0.54970 80 ft 14 kts 191°
2026-05-04 18:45 38.28436 -0.54994 77 ft 9 kts 211°
2026-05-04 18:45 38.28422 -0.55073 72 ft 9 kts 263°
2026-05-04 18:46 38.28396 -0.55146 81 ft 9 kts 236°
2026-05-04 18:46 38.28360 -0.55210 82 ft 9 kts 234°
2026-05-04 18:46 38.28328 -0.55275 85 ft 9 kts 250°
2026-05-04 18:46 38.28330 -0.55349 89 ft 8 kts 279°
2026-05-04 18:47 38.28340 -0.55420 89 ft 8 kts 280°
2026-05-04 18:47 38.28350 -0.55489 91 ft 8 kts 280°
2026-05-04 18:47 38.28359 -0.55556 94 ft 8 kts 280°
2026-05-04 18:47 38.28368 -0.55621 97 ft 7 kts 280°
2026-05-04 18:48 38.28376 -0.55683 99 ft 7 kts 280°
2026-05-04 18:48 38.28385 -0.55744 100 ft 7 kts 280°
2026-05-04 18:48 38.28393 -0.55805 102 ft 7 kts 280°
2026-05-04 18:48 38.28404 -0.55881 103 ft 9 kts 280°
2026-05-04 18:49 38.28415 -0.55957 104 ft 9 kts 280°
2026-05-04 18:49 38.28425 -0.56032 106 ft 8 kts 280°
2026-05-04 18:49 38.28435 -0.56104 107 ft 8 kts 280°
2026-05-04 18:49 38.28445 -0.56174 106 ft 8 kts 280°
2026-05-04 18:50 38.28454 -0.56241 107 ft 8 kts 280°
2026-05-04 18:50 38.28463 -0.56307 108 ft 7 kts 280°
2026-05-04 18:50 38.28472 -0.56369 110 ft 7 kts 280°
2026-05-04 18:50 38.28481 -0.56430 113 ft 7 kts 280°
2026-05-04 18:51 38.28489 -0.56490 113 ft 7 kts 280°
2026-05-04 18:51 38.28497 -0.56549 116 ft 7 kts 280°
2026-05-04 18:51 38.28498 -0.56555 115 ft 0 kts 280°
2026-05-04 18:52 38.28507 -0.56618 117 ft 22 kts 280°
2026-05-04 18:52 38.28534 -0.56807 122 ft 21 kts 280°
2026-05-04 18:52 38.28559 -0.56987 132 ft 21 kts 279°
2026-05-04 18:52 38.28583 -0.57165 140 ft 20 kts 280°
2026-05-04 18:53 38.28606 -0.57327 146 ft 13 kts 280°
2026-05-04 18:53 38.28577 -0.57423 150 ft 13 kts 201°
2026-05-04 18:53 38.28490 -0.57446 152 ft 13 kts 186°
2026-05-04 18:53 38.28433 -0.57371 148 ft 15 kts 103°
2026-05-04 18:54 38.28364 -0.56889 125 ft 106 kts 100°
2026-05-04 18:54 38.28179 -0.55632 375 ft 165 kts 102°
2026-05-04 18:54 38.27937 -0.54107 1258 ft 188 kts 104°
2026-05-04 18:54 38.27636 -0.52320 1890 ft 224 kts 102°
2026-05-04 18:55 38.27331 -0.50287 2631 ft 240 kts 97°
2026-05-04 18:55 38.28350 -0.46077 4195 ft 274 kts 57°
2026-05-04 18:55 38.29055 -0.44675 4884 ft 282 kts 55°
2026-05-04 18:56 38.30509 -0.41871 5830 ft 287 kts 54°
2026-05-04 18:56 38.31625 -0.39739 6011 ft 293 kts 53°
2026-05-04 18:56 38.32393 -0.38273 6000 ft 294 kts 53°
2026-05-04 18:56 38.33504 -0.36137 6009 ft 293 kts 55°
2026-05-04 18:57 38.34416 -0.33788 6006 ft 292 kts 66°
2026-05-04 18:57 38.35131 -0.31374 6008 ft 291 kts 68°
2026-05-04 18:57 38.35830 -0.28999 6008 ft 290 kts 67°
2026-05-04 18:57 38.36553 -0.26599 6022 ft 290 kts 66°
2026-05-04 18:58 38.37344 -0.24184 6497 ft 299 kts 65°
2026-05-04 18:58 38.38157 -0.21752 7734 ft 298 kts 65°
2026-05-04 18:58 38.38975 -0.19303 8900 ft 303 kts 65°
2026-05-04 18:58 38.39809 -0.16800 9966 ft 310 kts 66°
2026-05-04 18:59 38.40667 -0.14218 10689 ft 328 kts 66°
2026-05-04 18:59 38.41601 -0.11402 10953 ft 360 kts 66°
2026-05-04 18:59 38.42604 -0.08371 11587 ft 376 kts 66°
2026-05-04 18:59 38.43769 -0.05343 12443 ft 384 kts 53°
2026-05-04 19:00 38.45666 -0.02962 13370 ft 384 kts 29°
2026-05-04 19:00 38.48047 -0.01580 14264 ft 381 kts
2026-05-04 19:00 38.50657 -0.01205 15117 ft 378 kts 355°
2026-05-04 19:00 38.53309 -0.01175 15988 ft 383 kts 354°
2026-05-04 19:01 38.55997 -0.01197 16844 ft 389 kts 353°
2026-05-04 19:01 38.58728 -0.01228 17710 ft 395 kts 353°
2026-05-04 19:01 38.61499 -0.01249 18512 ft 401 kts 353°
2026-05-04 19:01 38.64304 -0.01257 19255 ft 406 kts 353°
2026-05-04 19:02 38.67137 -0.01251 20102 ft 408 kts 353°
2026-05-04 19:02 38.70011 -0.01240 20774 ft 416 kts 353°
2026-05-04 19:02 38.72932 -0.01225 21395 ft 422 kts 353°
2026-05-04 19:02 38.75846 -0.01207 22117 ft 426 kts 353°
2026-05-04 19:03 38.78831 -0.01186 22833 ft 431 kts 353°
2026-05-04 19:03 38.81847 -0.01165 23507 ft 436 kts 353°
2026-05-04 19:03 38.84915 -0.01144 24066 ft 441 kts 353°
2026-05-04 19:03 38.87998 -0.01122 24676 ft 444 kts 353°
2026-05-04 19:04 38.91063 -0.01100 25303 ft 446 kts 353°
2026-05-04 19:04 38.94181 -0.01079 25874 ft 450 kts 353°
2026-05-04 19:04 38.97324 -0.01057 26432 ft 453 kts 353°
2026-05-04 19:04 39.00488 -0.01037 26976 ft 456 kts 353°
2026-05-04 19:05 39.03680 -0.01015 27509 ft 460 kts 353°
2026-05-04 19:05 39.06893 -0.00994 28037 ft 463 kts 353°
2026-05-04 19:05 39.10132 -0.00972 28558 ft 466 kts 353°
2026-05-04 19:05 39.13380 -0.00949 29235 ft 465 kts 353°
2026-05-04 19:06 39.16615 -0.00924 29861 ft 463 kts 353°
2026-05-04 19:06 39.19815 -0.00903 29885 ft 467 kts 353°
2026-05-04 19:06 39.26279 -0.00857 29896 ft 460 kts 353°
2026-05-04 19:07 39.32690 -0.00816 29918 ft 461 kts 353°
2026-05-04 19:07 39.39130 -0.00776 29915 ft 464 kts 353°
2026-05-04 19:08 39.45556 -0.00737 29918 ft 464 kts 353°
2026-05-04 19:08 39.52015 -0.00696 29919 ft 463 kts 353°
2026-05-04 19:09 39.58461 -0.00655 29954 ft 463 kts 353°
2026-05-04 19:09 39.64913 -0.00616 29926 ft 463 kts 353°
2026-05-04 19:10 39.71363 -0.00575 29925 ft 463 kts 353°
2026-05-04 19:10 39.77812 -0.00535 29931 ft 463 kts 353°
2026-05-04 19:11 39.84276 -0.00183 29930 ft 471 kts
2026-05-04 19:11 39.90639 0.01990 29942 ft 478 kts 11°
2026-05-04 19:12 40.00202 0.05727 29947 ft 478 kts 11°
2026-05-04 19:13 40.06585 0.08129 29964 ft 478 kts 11°
2026-05-04 19:13 40.12981 0.10511 29959 ft 477 kts 11°
2026-05-04 19:14 40.19369 0.12900 29968 ft 477 kts 11°
2026-05-04 19:14 40.25706 0.15273 29994 ft 476 kts 11°
2026-05-04 19:15 40.32079 0.17648 29964 ft 475 kts 11°
2026-05-04 19:15 40.38435 0.20022 29967 ft 474 kts 11°
2026-05-04 19:16 40.44775 0.22397 29959 ft 473 kts 12°
2026-05-04 19:16 40.47820 0.24111 29976 ft 482 kts 30°
2026-05-04 19:16 40.50374 0.26991 29966 ft 488 kts 49°
2026-05-04 19:16 40.52201 0.30739 29966 ft 489 kts 67°
2026-05-04 19:17 40.53161 0.35008 29970 ft 485 kts 84°
2026-05-04 19:17 40.53243 0.39398 29924 ft 478 kts 102°
2026-05-04 19:17 40.52547 0.43635 29974 ft 473 kts 109°
2026-05-04 19:18 40.50829 0.51929 29946 ft 474 kts 110°
2026-05-04 19:18 40.49078 0.60319 29940 ft 476 kts 110°
2026-05-04 19:19 40.47385 0.68730 29935 ft 476 kts 109°
2026-05-04 19:19 40.45715 0.77141 29890 ft 476 kts 110°
2026-05-04 19:20 40.44044 0.85538 29928 ft 475 kts 110°
2026-05-04 19:20 40.43273 0.94104 29938 ft 487 kts 86°
2026-05-04 19:20 40.43998 0.98523 29474 ft 494 kts 73°
2026-05-04 19:21 40.45412 1.02584 28666 ft 496 kts 60°
2026-05-04 19:21 40.47167 1.06431 28067 ft 488 kts 59°
2026-05-04 19:21 40.48913 1.10216 27413 ft 481 kts 59°
2026-05-04 19:21 40.50631 1.13962 26740 ft 476 kts 59°
2026-05-04 19:22 40.52317 1.17684 26065 ft 471 kts 60°
2026-05-04 19:22 40.53972 1.21383 25430 ft 467 kts 60°
2026-05-04 19:22 40.55601 1.25054 24795 ft 463 kts 60°
2026-05-04 19:22 40.57210 1.28699 24148 ft 459 kts 60°
2026-05-04 19:23 40.58811 1.32335 23485 ft 457 kts 60°
2026-05-04 19:23 40.60398 1.35947 22722 ft 454 kts 60°
2026-05-04 19:23 40.61970 1.39527 22042 ft 449 kts 60°
2026-05-04 19:23 40.63524 1.43067 21378 ft 444 kts 60°
2026-05-04 19:24 40.65060 1.46571 20730 ft 439 kts 60°
2026-05-04 19:24 40.66581 1.50042 20094 ft 435 kts 60°
2026-05-04 19:24 40.68085 1.53478 19441 ft 430 kts 60°
2026-05-04 19:24 40.69573 1.56882 18817 ft 427 kts 60°
2026-05-04 19:25 40.71048 1.60260 18174 ft 424 kts 60°
2026-05-04 19:25 40.72493 1.63573 17465 ft 420 kts 60°
2026-05-04 19:25 40.73943 1.66901 16807 ft 416 kts 60°
2026-05-04 19:25 40.75372 1.70185 16162 ft 411 kts 60°
2026-05-04 19:26 40.76789 1.73443 15536 ft 406 kts 60°
2026-05-04 19:26 40.78189 1.76667 14922 ft 402 kts 60°
2026-05-04 19:26 40.79572 1.79854 14310 ft 398 kts 61°
2026-05-04 19:26 40.80940 1.83011 13696 ft 394 kts 61°
2026-05-04 19:27 40.82292 1.86135 13016 ft 390 kts 60°
2026-05-04 19:27 40.83633 1.89236 12369 ft 386 kts 60°
2026-05-04 19:27 40.84958 1.92303 11733 ft 382 kts 60°
2026-05-04 19:27 40.86252 1.95301 11138 ft 378 kts 60°
2026-05-04 19:28 40.87545 1.98302 10542 ft 374 kts 60°
2026-05-04 19:28 40.88808 2.01232 10335 ft 359 kts 60°
2026-05-04 19:28 40.90017 2.04042 10177 ft 344 kts 60°
2026-05-04 19:28 40.91178 2.06739 10026 ft 330 kts 60°
2026-05-04 19:29 40.92561 2.09063 9909 ft 315 kts 38°
2026-05-04 19:29 40.94318 2.10655 9844 ft 300 kts 28°
2026-05-04 19:29 40.96119 2.12009 9711 ft 295 kts 26°
2026-05-04 19:29 40.97923 2.13318 9608 ft 296 kts 26°
2026-05-04 19:30 40.99712 2.14620 9509 ft 298 kts 26°
2026-05-04 19:30 41.01533 2.15958 9416 ft 301 kts 26°
2026-05-04 19:30 41.03357 2.17313 9309 ft 301 kts 26°
2026-05-04 19:30 41.05181 2.18677 9205 ft 300 kts 26°
2026-05-04 19:31 41.06996 2.20040 9100 ft 299 kts 27°
2026-05-04 19:31 41.08805 2.21403 9004 ft 298 kts 27°
2026-05-04 19:31 41.10613 2.22766 8777 ft 299 kts 26°
2026-05-04 19:31 41.12406 2.24121 8524 ft 293 kts 27°
2026-05-04 19:32 41.14163 2.25449 8261 ft 287 kts 27°
2026-05-04 19:32 41.15882 2.26750 8008 ft 282 kts 26°
2026-05-04 19:32 41.17544 2.28096 7641 ft 282 kts 34°
2026-05-04 19:32 41.19131 2.29612 7142 ft 286 kts 31°
2026-05-04 19:33 41.20832 2.31079 6583 ft 292 kts 30°
2026-05-04 19:33 41.22559 2.32547 5889 ft 303 kts 30°
2026-05-04 19:33 41.24302 2.34017 5753 ft 290 kts 30°
2026-05-04 19:33 41.25965 2.35418 5654 ft 276 kts 30°
2026-05-04 19:34 41.27555 2.36765 5490 ft 267 kts 30°
2026-05-04 19:34 41.29132 2.38097 5101 ft 269 kts 30°
2026-05-04 19:34 41.30714 2.39428 4740 ft 269 kts 30°
2026-05-04 19:34 41.32291 2.40753 4353 ft 265 kts 30°
2026-05-04 19:35 41.33830 2.42046 4057 ft 258 kts 30°
2026-05-04 19:35 41.35308 2.43291 4020 ft 245 kts 30°
2026-05-04 19:35 41.36749 2.44407 4001 ft 235 kts 15°
2026-05-04 19:35 41.38303 2.44439 4025 ft 221 kts 333°
2026-05-04 19:36 41.39419 2.43175 4041 ft 211 kts 292°
2026-05-04 19:36 41.39733 2.41271 3837 ft 218 kts 273°
2026-05-04 19:36 41.39864 2.39229 3294 ft 222 kts 272°
2026-05-04 19:36 41.39983 2.37057 2904 ft 254 kts 272°
2026-05-04 19:37 41.40067 2.34593 2993 ft 274 kts 264°
2026-05-04 19:37 41.39488 2.32178 3032 ft 278 kts 243°
2026-05-04 19:37 41.38586 2.29931 3027 ft 279 kts 241°
2026-05-04 19:37 41.37482 2.27804 3021 ft 280 kts 233°
2026-05-04 19:38 41.36278 2.25808 3007 ft 270 kts 232°
2026-05-04 19:38 41.35240 2.23842 3015 ft 249 kts 240°
2026-05-04 19:38 41.34452 2.21832 2439 ft 252 kts 246°
2026-05-04 19:38 41.33730 2.19625 1746 ft 263 kts 247°
2026-05-04 19:39 41.32975 2.17404 1224 ft 257 kts 245°
2026-05-04 19:39 41.32274 2.15377 878 ft 225 kts 246°
2026-05-04 19:39 41.31668 2.13599 586 ft 197 kts 246°
2026-05-04 19:39 41.31136 2.12043 326 ft 174 kts 245°
2026-05-04 19:40 41.30670 2.10675 114 ft 152 kts 245°
2026-05-04 19:40 41.30277 2.09519 38 ft 119 kts 246°
2026-05-04 19:40 41.30011 2.08731 18 ft 51 kts 246°
2026-05-04 19:40 41.29968 2.08603 18 ft 25 kts 246°
2026-05-04 19:41 41.29931 2.08256 18 ft 24 kts 275°
2026-05-04 19:41 41.29945 2.08074 17 ft 11 kts 286°
2026-05-04 19:41 41.29980 2.08031 17 ft 0 kts 332°
2026-05-04 19:42 41.29982 2.08029 5 ft 5 kts 332°
2026-05-04 19:42 41.30046 2.07987 18 ft 8 kts 336°
2026-05-04 19:43 41.30081 2.07966 18 ft 8 kts 336°
2026-05-04 19:43 41.30122 2.07918 17 ft 8 kts 311°
2026-05-04 19:43 41.30168 2.07883 17 ft 7 kts 347°
2026-05-04 19:43 41.30203 2.07903 17 ft 5 kts 38°
2026-05-04 19:44 41.30235 2.07924 17 ft 4 kts 25°
2026-05-04 19:44 41.30235 2.07925 17 ft 0 kts 25°